Home > Weather > Winsen (Luhe) > Past weeks

Flag for Germany Weather for the Past 2 Weeks in Winsen (Luhe), Lower Saxony, Germany

Now
48 °F

Scattered clouds.


Feels Like: 41 °F
Forecast: 43 / 47 °F
Wind: 22 mph from Southwest

Location: Hamburg-Finkenwerder

Current Time: Feb 8, 2016 at 4:07:18 PM

Latest Report: Feb 8, 2016 at 3:20 PM


Visibility: N/A

Pressure: 29.12 "Hg

Humidity: 76%

Dew point: 41 °F

Location of Winsen (Luhe)Location

Historic Weather in Winsen (Luhe) — Graph

°F

Winsen (Luhe) Temperature Yesterday

High & Low Weather Summary for the Past Weeks

 TemperatureHumidityPressure
High52 °F (Jan 26, 2:20 PM)100% (Jan 25, 6:20 AM)30.24 "Hg (Jan 25, 6:20 AM)
Low34 °F (Feb 4, 8:50 PM)61% (Feb 2, 7:20 PM)29.12 "Hg (Feb 8, 12:20 PM)
Average45 °F92%29.90 "Hg
* Reported Jan 25 6:20 AM — Feb 8 2:50 PM, Winsen (Luhe), Weather by CustomWeather, © 2016

Note: Actual official high and low records may vary slightly from our data, if they occured in-between our weather recording intervals... More about our weather records

Advertising

Winsen (Luhe) Weather History for the Previous 24 Hours

 ConditionsComfort  
Time TempWeatherWind HumidityBarometerVisibility
2:50 PM
Mon, Feb 8
48 °FScattered clouds.21 mph76%29.12 "HgN/A
2:20 PM48 °FScattered clouds.24 mph76%29.12 "HgN/A
1:50 PM50 °FPassing clouds.20 mph71%29.12 "HgN/A
1:20 PM50 °FBroken clouds.20 mph76%29.12 "HgN/A
12:50 PM50 °FBroken clouds.23 mph76%29.12 "HgN/A
12:20 PM48 °FBroken clouds.23 mph87%29.12 "HgN/A
11:50 AM48 °FPartly sunny.23 mph87%29.15 "HgN/A
11:20 AM46 °FBroken clouds.29 mph93%29.15 "HgN/A
10:50 AM46 °FPartly sunny.23 mph93%29.15 "HgN/A
10:20 AM46 °FPartly sunny.31 mph93%29.15 "HgN/A
9:50 AM46 °FPartly sunny.28 mph87%29.15 "HgN/A
9:20 AM45 °FBroken clouds.26 mph93%29.15 "HgN/A
8:50 AM45 °FLight rain. Broken clouds.25 mph93%29.18 "HgN/A
8:20 AM45 °FLight rain. Partly sunny.24 mph93%29.21 "HgN/A
7:50 AM45 °FPartly cloudy.23 mph87%29.21 "HgN/A
7:20 AM45 °FLight rain. Passing clouds.22 mph81%29.21 "HgN/A
6:50 AM45 °FPassing clouds.15 mph81%29.24 "HgN/A
6:20 AM43 °FLight rain. Passing clouds.14 mph87%29.27 "HgN/A
5:50 AM43 °FPassing clouds.16 mph87%29.27 "Hg6 mi
5:20 AM43 °FPassing clouds.14 mph76%29.30 "HgN/A
Weather by CustomWeather, © 2016

See weather overviewHow to use our weather pages